Location: *
(58.7167°N, 26.1833°E)
Time: 03:08:11
(UTC+00:00)

Cosmos 1707 - Pass Details

Date: 25 August 2019
Orbit: 517 x 531 km, 82.5° (Epoch: 18 September)

Event Time Altitude Azimuth Distance (km) Brightness Sun altitude
Rises 20:11:49 0° 348° (NNW) 2,659 7.7 -16.1°
Reaches altitude 10° 20:14:00 10° 352° (N) 1,767 6.4 -16.3°
Maximum altitude 20:17:50 58° 73° (ENE) 615 2.9 -16.5°
Enters shadow 20:19:10 36° 135° (SE) 846 3.2 -16.6°
